Year,Month,Day,Hour,Minute,Value (Times are PST for temperature in C)
2007,07,05,00,00,17.90
2007,07,05,00,01,17.90
2007,07,05,00,02,17.90
2007,07,05,00,03,17.90
2007,07,05,00,04,17.90
2007,07,05,00,05,17.90
2007,07,05,00,06,17.90
2007,07,05,00,07,17.80
2007,07,05,00,08,17.80
2007,07,05,00,09,17.80
2007,07,05,00,10,17.80
2007,07,05,00,11,17.90
2007,07,05,00,12,17.90
2007,07,05,00,13,17.90
2007,07,05,00,14,17.90
2007,07,05,00,15,17.90
2007,07,05,00,16,17.90
2007,07,05,00,17,17.90
2007,07,05,00,18,18.00
2007,07,05,00,19,17.90
2007,07,05,00,20,17.90
2007,07,05,00,21,17.90
2007,07,05,00,22,17.90
2007,07,05,00,23,17.90
2007,07,05,00,24,17.90
2007,07,05,00,25,17.90
2007,07,05,00,26,17.90
2007,07,05,00,27,17.80
2007,07,05,00,28,17.80
2007,07,05,00,29,17.80
2007,07,05,00,30,17.80
2007,07,05,00,31,17.80
2007,07,05,00,32,17.80
2007,07,05,00,33,17.80
2007,07,05,00,34,17.80
2007,07,05,00,35,17.80
2007,07,05,00,36,17.80
2007,07,05,00,37,17.80
2007,07,05,00,38,17.90
2007,07,05,00,39,17.90
2007,07,05,00,40,17.90
2007,07,05,00,41,17.90
2007,07,05,00,42,17.80
2007,07,05,00,43,17.80
2007,07,05,00,44,17.90
2007,07,05,00,45,17.90
2007,07,05,00,46,17.90
2007,07,05,00,47,17.90
2007,07,05,00,48,17.90
2007,07,05,00,49,17.90
2007,07,05,00,50,17.90
2007,07,05,00,51,17.80
2007,07,05,00,52,17.80
2007,07,05,00,53,17.70
2007,07,05,00,54,17.70
2007,07,05,00,55,17.60
2007,07,05,00,56,17.60
2007,07,05,00,57,17.60
2007,07,05,00,58,17.60
2007,07,05,00,59,17.60
2007,07,05,01,00,17.60
2007,07,05,01,01,17.60
2007,07,05,01,02,17.60
2007,07,05,01,03,17.60
2007,07,05,01,04,17.50
2007,07,05,01,05,17.50
2007,07,05,01,06,17.50
2007,07,05,01,07,17.50
2007,07,05,01,08,17.50
2007,07,05,01,09,17.50
2007,07,05,01,10,17.40
2007,07,05,01,11,17.40
2007,07,05,01,12,17.40
2007,07,05,01,13,17.30
2007,07,05,01,14,17.30
2007,07,05,01,15,17.30
2007,07,05,01,16,17.30
2007,07,05,01,17,17.30
2007,07,05,01,18,17.30
2007,07,05,01,19,17.30
2007,07,05,01,20,17.30
2007,07,05,01,21,17.30
2007,07,05,01,22,17.30
2007,07,05,01,23,17.30
2007,07,05,01,24,17.30
2007,07,05,01,25,17.30
2007,07,05,01,26,17.30
2007,07,05,01,27,17.30
2007,07,05,01,28,17.30
2007,07,05,01,29,17.30
2007,07,05,01,30,17.30
2007,07,05,01,31,17.30
2007,07,05,01,32,17.30
2007,07,05,01,33,17.30
2007,07,05,01,34,17.20
2007,07,05,01,35,17.20
2007,07,05,01,36,17.20
2007,07,05,01,37,17.10
2007,07,05,01,38,17.00
2007,07,05,01,39,17.00
2007,07,05,01,40,16.90
2007,07,05,01,41,16.90
2007,07,05,01,42,16.90
2007,07,05,01,43,16.90
2007,07,05,01,44,16.80
2007,07,05,01,45,16.90
2007,07,05,01,46,16.90
2007,07,05,01,47,16.90
2007,07,05,01,48,16.90
2007,07,05,01,49,16.90
2007,07,05,01,50,16.90
2007,07,05,01,51,16.90
2007,07,05,01,52,16.90
2007,07,05,01,53,16.90
2007,07,05,01,54,16.90
2007,07,05,01,55,16.90
2007,07,05,01,56,16.90
2007,07,05,01,57,16.90
2007,07,05,01,58,16.90
2007,07,05,01,59,16.90
2007,07,05,02,00,16.90
2007,07,05,02,01,16.90
2007,07,05,02,02,17.00
2007,07,05,02,03,17.00
2007,07,05,02,04,17.00
2007,07,05,02,05,17.00
2007,07,05,02,06,17.00
2007,07,05,02,07,16.90
2007,07,05,02,08,16.90
2007,07,05,02,09,16.90
2007,07,05,02,10,16.90
2007,07,05,02,11,16.80
2007,07,05,02,12,16.80
2007,07,05,02,13,16.80
2007,07,05,02,14,16.70
2007,07,05,02,15,16.70
2007,07,05,02,16,16.70
2007,07,05,02,17,16.70
2007,07,05,02,18,16.60
2007,07,05,02,19,16.50
2007,07,05,02,20,16.40
2007,07,05,02,21,16.40
2007,07,05,02,22,16.40
2007,07,05,02,23,16.40
2007,07,05,02,24,16.40
2007,07,05,02,25,16.40
2007,07,05,02,26,16.30
2007,07,05,02,27,16.30
2007,07,05,02,28,16.30
2007,07,05,02,29,16.30
2007,07,05,02,30,16.20
2007,07,05,02,31,16.20
2007,07,05,02,32,16.20
2007,07,05,02,33,16.10
2007,07,05,02,34,16.10
2007,07,05,02,35,16.10
2007,07,05,02,36,16.10
2007,07,05,02,37,16.10
2007,07,05,02,38,16.10
2007,07,05,02,39,16.10
2007,07,05,02,40,16.10
2007,07,05,02,41,16.20
2007,07,05,02,42,16.20
2007,07,05,02,43,16.20
2007,07,05,02,44,16.20
2007,07,05,02,45,16.20
2007,07,05,02,46,16.20
2007,07,05,02,47,16.20
2007,07,05,02,48,16.10
2007,07,05,02,49,16.10
2007,07,05,02,50,16.10
2007,07,05,02,51,16.10
2007,07,05,02,52,15.90
2007,07,05,02,53,15.90
2007,07,05,02,54,15.80
2007,07,05,02,55,15.80
2007,07,05,02,56,15.80
2007,07,05,02,57,15.80
2007,07,05,02,58,15.80
2007,07,05,02,59,15.80
2007,07,05,03,00,15.80
2007,07,05,03,01,15.80
2007,07,05,03,02,15.80
2007,07,05,03,03,15.80
2007,07,05,03,04,15.80
2007,07,05,03,05,15.90
2007,07,05,03,06,15.80
2007,07,05,03,07,15.80
2007,07,05,03,08,15.80
2007,07,05,03,09,15.80
2007,07,05,03,10,15.80
2007,07,05,03,11,15.80
2007,07,05,03,12,15.80
2007,07,05,03,13,15.80
2007,07,05,03,14,15.80
2007,07,05,03,15,15.80
2007,07,05,03,16,15.80
2007,07,05,03,17,15.80
2007,07,05,03,18,15.80
2007,07,05,03,19,15.80
2007,07,05,03,20,15.80
2007,07,05,03,21,15.80
2007,07,05,03,22,15.80
2007,07,05,03,23,15.80
2007,07,05,03,24,15.80
2007,07,05,03,25,15.80
2007,07,05,03,26,15.80
2007,07,05,03,27,15.80
2007,07,05,03,28,15.80
2007,07,05,03,29,15.80
2007,07,05,03,30,15.80
2007,07,05,03,31,15.80
2007,07,05,03,32,15.80
2007,07,05,03,33,15.80
2007,07,05,03,34,15.80
2007,07,05,03,35,15.80
2007,07,05,03,36,15.80
2007,07,05,03,37,15.80
2007,07,05,03,38,15.80
2007,07,05,03,39,15.80
2007,07,05,03,40,15.80
2007,07,05,03,41,15.80
2007,07,05,03,42,15.70
2007,07,05,03,43,15.70
2007,07,05,03,44,15.70
2007,07,05,03,45,15.60
2007,07,05,03,46,15.60
2007,07,05,03,47,15.60
2007,07,05,03,48,15.50
2007,07,05,03,49,15.50
2007,07,05,03,50,15.50
2007,07,05,03,51,15.50
2007,07,05,03,52,15.40
2007,07,05,03,53,15.40
2007,07,05,03,54,15.40
2007,07,05,03,55,15.30
2007,07,05,03,56,15.30
2007,07,05,03,57,15.30
2007,07,05,03,58,15.30
2007,07,05,03,59,15.20
2007,07,05,04,00,15.20
2007,07,05,04,01,15.10
2007,07,05,04,02,15.10
2007,07,05,04,03,15.00
2007,07,05,04,04,15.00
2007,07,05,04,05,15.00
2007,07,05,04,06,15.00
2007,07,05,04,07,15.00
2007,07,05,04,08,15.00
2007,07,05,04,09,15.00
2007,07,05,04,10,15.00
2007,07,05,04,11,15.10
2007,07,05,04,12,15.10
2007,07,05,04,13,15.10
2007,07,05,04,14,15.10
2007,07,05,04,15,15.10
2007,07,05,04,16,15.10
2007,07,05,04,17,15.10
2007,07,05,04,18,15.10
2007,07,05,04,19,15.10
2007,07,05,04,20,15.10
2007,07,05,04,21,15.10
2007,07,05,04,22,15.10
2007,07,05,04,23,15.10
2007,07,05,04,24,15.10
2007,07,05,04,25,15.10
2007,07,05,04,26,15.10
2007,07,05,04,27,15.10
2007,07,05,04,28,15.10
2007,07,05,04,29,15.10
2007,07,05,04,30,15.10
2007,07,05,04,31,15.10
2007,07,05,04,32,15.10
2007,07,05,04,33,15.10
2007,07,05,04,34,15.10
2007,07,05,04,35,15.20
2007,07,05,04,36,15.20
2007,07,05,04,37,15.20
2007,07,05,04,38,15.20
2007,07,05,04,39,15.20
2007,07,05,04,40,15.30
2007,07,05,04,41,15.30
2007,07,05,04,42,15.30
2007,07,05,04,43,15.30
2007,07,05,04,44,15.20
2007,07,05,04,45,15.20
2007,07,05,04,46,15.20
2007,07,05,04,47,15.20
2007,07,05,04,48,15.20
2007,07,05,04,49,15.20
2007,07,05,04,50,15.20
2007,07,05,04,51,15.20
2007,07,05,04,52,15.10
2007,07,05,04,53,15.10
2007,07,05,04,54,15.10
2007,07,05,04,55,15.10
2007,07,05,04,56,15.10
2007,07,05,04,57,15.10
2007,07,05,04,58,15.10
2007,07,05,04,59,15.10
2007,07,05,05,00,15.10
2007,07,05,05,01,15.00
2007,07,05,05,02,14.90
2007,07,05,05,03,14.90
2007,07,05,05,04,14.90
2007,07,05,05,05,14.90
2007,07,05,05,06,14.80
2007,07,05,05,07,14.80
2007,07,05,05,08,14.80
2007,07,05,05,09,14.70
2007,07,05,05,10,14.70
2007,07,05,05,11,14.70
2007,07,05,05,12,14.70
2007,07,05,05,13,14.70
2007,07,05,05,14,14.70
2007,07,05,05,15,14.70
2007,07,05,05,16,14.70
2007,07,05,05,17,14.70
2007,07,05,05,18,14.70
2007,07,05,05,19,14.70
2007,07,05,05,20,14.70
2007,07,05,05,21,14.70
2007,07,05,05,22,14.70
2007,07,05,05,23,14.70
2007,07,05,05,24,14.70
2007,07,05,05,25,14.70
2007,07,05,05,26,14.70
2007,07,05,05,27,14.70
2007,07,05,05,28,14.70
2007,07,05,05,29,14.60
2007,07,05,05,30,14.60
2007,07,05,05,31,14.60
2007,07,05,05,32,14.50
2007,07,05,05,33,14.50
2007,07,05,05,34,14.50
2007,07,05,05,35,14.50
2007,07,05,05,36,14.40
2007,07,05,05,37,14.40
2007,07,05,05,38,14.30
2007,07,05,05,39,14.30
2007,07,05,05,40,14.30
2007,07,05,05,41,14.30
2007,07,05,05,42,14.30
2007,07,05,05,43,14.30
2007,07,05,05,44,14.30
2007,07,05,05,45,14.20
2007,07,05,05,46,14.20
2007,07,05,05,47,14.20
2007,07,05,05,48,14.30
2007,07,05,05,49,14.30
2007,07,05,05,50,14.30
2007,07,05,05,51,14.40
2007,07,05,05,52,14.40
2007,07,05,05,53,14.40
2007,07,05,05,54,14.40
2007,07,05,05,55,14.40
2007,07,05,05,56,14.40
2007,07,05,05,57,14.30
2007,07,05,05,58,14.30
2007,07,05,05,59,14.30
2007,07,05,06,00,14.40
2007,07,05,06,01,14.40
2007,07,05,06,02,14.40
2007,07,05,06,03,14.40
2007,07,05,06,04,14.50
2007,07,05,06,05,14.60
2007,07,05,06,06,14.60
2007,07,05,06,07,14.60
2007,07,05,06,08,14.60
2007,07,05,06,09,14.70
2007,07,05,06,10,14.80
2007,07,05,06,11,14.80
2007,07,05,06,12,14.90
2007,07,05,06,13,15.00
2007,07,05,06,14,15.10
2007,07,05,06,15,15.20
2007,07,05,06,16,15.20
2007,07,05,06,17,15.30
2007,07,05,06,18,15.30
2007,07,05,06,19,15.40
2007,07,05,06,20,15.30
2007,07,05,06,21,15.30
2007,07,05,06,22,15.30
2007,07,05,06,23,15.30
2007,07,05,06,24,15.30
2007,07,05,06,25,15.40
2007,07,05,06,26,15.40
2007,07,05,06,27,15.40
2007,07,05,06,28,15.50
2007,07,05,06,29,15.50
2007,07,05,06,30,15.50
2007,07,05,06,31,15.50
2007,07,05,06,32,15.50
2007,07,05,06,33,15.50
2007,07,05,06,34,15.50
2007,07,05,06,35,15.50
2007,07,05,06,36,15.50
2007,07,05,06,37,15.50
2007,07,05,06,38,15.50
2007,07,05,06,39,15.50
2007,07,05,06,40,15.50
2007,07,05,06,41,15.50
2007,07,05,06,42,15.50
2007,07,05,06,43,15.40
2007,07,05,06,44,15.40
2007,07,05,06,45,15.40
2007,07,05,06,46,15.50
2007,07,05,06,47,15.50
2007,07,05,06,48,15.50
2007,07,05,06,49,15.50
2007,07,05,06,50,15.50
2007,07,05,06,51,15.50
2007,07,05,06,52,15.40
2007,07,05,06,53,15.40
2007,07,05,06,54,15.30
2007,07,05,06,55,15.30
2007,07,05,06,56,15.40
2007,07,05,06,57,15.50
2007,07,05,06,58,15.50
2007,07,05,06,59,15.60
2007,07,05,07,00,15.70
2007,07,05,07,01,15.80
2007,07,05,07,02,15.90
2007,07,05,07,03,16.10
2007,07,05,07,04,16.20
2007,07,05,07,05,16.20
2007,07,05,07,06,16.20
2007,07,05,07,07,16.30
2007,07,05,07,08,16.30
2007,07,05,07,09,16.30
2007,07,05,07,10,16.30
2007,07,05,07,11,16.40
2007,07,05,07,12,16.40
2007,07,05,07,13,16.60
2007,07,05,07,14,16.70
2007,07,05,07,15,16.80
2007,07,05,07,16,16.90
2007,07,05,07,17,17.00
2007,07,05,07,18,17.00
2007,07,05,07,19,17.10
2007,07,05,07,20,17.20
2007,07,05,07,21,17.30
2007,07,05,07,22,17.30
2007,07,05,07,23,17.30
2007,07,05,07,24,17.40
2007,07,05,07,25,17.40
2007,07,05,07,26,17.50
2007,07,05,07,27,17.50
2007,07,05,07,28,17.60
2007,07,05,07,29,17.80
2007,07,05,07,30,17.90
2007,07,05,07,31,17.90
2007,07,05,07,32,18.00
2007,07,05,07,33,18.10
2007,07,05,07,34,18.20
2007,07,05,07,35,18.20
2007,07,05,07,36,18.20
2007,07,05,07,37,18.20
2007,07,05,07,38,18.20
2007,07,05,07,39,18.20
2007,07,05,07,40,18.30
2007,07,05,07,41,18.40
2007,07,05,07,42,18.50
2007,07,05,07,43,18.60
2007,07,05,07,44,18.60
2007,07,05,07,45,18.70
2007,07,05,07,46,18.90
2007,07,05,07,47,19.00
2007,07,05,07,48,19.10
2007,07,05,07,49,19.20
2007,07,05,07,50,19.20
2007,07,05,07,51,19.20
2007,07,05,07,52,19.30
2007,07,05,07,53,19.30
2007,07,05,07,54,19.30
2007,07,05,07,55,19.30
2007,07,05,07,56,19.50
2007,07,05,07,57,19.60
2007,07,05,07,58,19.70
2007,07,05,07,59,19.70
2007,07,05,08,00,19.70
2007,07,05,08,01,19.60
2007,07,05,08,02,19.70
2007,07,05,08,03,19.50
2007,07,05,08,04,19.30
2007,07,05,08,05,19.10
2007,07,05,08,06,19.10
2007,07,05,08,07,19.10
2007,07,05,08,08,18.90
2007,07,05,08,09,18.90
2007,07,05,08,10,18.80
2007,07,05,08,11,18.60
2007,07,05,08,12,18.60
2007,07,05,08,13,18.60
2007,07,05,08,14,18.70
2007,07,05,08,15,18.70
2007,07,05,08,16,18.80
2007,07,05,08,17,18.80
2007,07,05,08,18,18.90
2007,07,05,08,19,18.90
2007,07,05,08,20,19.00
2007,07,05,08,21,19.10
2007,07,05,08,22,19.10
2007,07,05,08,23,19.30
2007,07,05,08,24,19.30
2007,07,05,08,25,19.40
2007,07,05,08,26,19.50
2007,07,05,08,27,19.60
2007,07,05,08,28,19.70
2007,07,05,08,29,19.60
2007,07,05,08,30,19.60
2007,07,05,08,31,19.50
2007,07,05,08,32,19.40
2007,07,05,08,33,19.30
2007,07,05,08,34,19.30
2007,07,05,08,35,19.30
2007,07,05,08,36,19.30
2007,07,05,08,37,19.20
2007,07,05,08,38,19.10
2007,07,05,08,39,19.10
2007,07,05,08,40,19.10
2007,07,05,08,41,19.10
2007,07,05,08,42,19.00
2007,07,05,08,43,19.00
2007,07,05,08,44,19.10
2007,07,05,08,45,19.10
2007,07,05,08,46,19.10
2007,07,05,08,47,19.10
2007,07,05,08,48,19.10
2007,07,05,08,49,19.10
2007,07,05,08,50,19.10
2007,07,05,08,51,19.10
2007,07,05,08,52,19.10
2007,07,05,08,53,19.10
2007,07,05,08,54,19.20
2007,07,05,08,55,19.20
2007,07,05,08,56,19.20
2007,07,05,08,57,19.20
2007,07,05,08,58,19.30
2007,07,05,08,59,19.30
2007,07,05,09,00,19.20
2007,07,05,09,01,19.20
2007,07,05,09,02,19.30
2007,07,05,09,03,19.30
2007,07,05,09,04,19.40
2007,07,05,09,05,19.40
2007,07,05,09,06,19.50
2007,07,05,09,07,19.50
2007,07,05,09,08,19.60
2007,07,05,09,09,19.60
2007,07,05,09,10,19.70
2007,07,05,09,11,19.70
2007,07,05,09,12,19.70
2007,07,05,09,13,19.60
2007,07,05,09,14,19.60
2007,07,05,09,15,19.70
2007,07,05,09,16,19.70
2007,07,05,09,17,19.80
2007,07,05,09,18,19.90
2007,07,05,09,19,20.00
2007,07,05,09,20,19.90
2007,07,05,09,21,19.90
2007,07,05,09,22,19.70
2007,07,05,09,23,19.70
2007,07,05,09,24,19.60
2007,07,05,09,25,19.60
2007,07,05,09,26,19.60
2007,07,05,09,27,19.60
2007,07,05,09,28,19.60
2007,07,05,09,29,19.70
2007,07,05,09,30,19.80
2007,07,05,09,31,19.80
2007,07,05,09,32,19.80
2007,07,05,09,33,19.70
2007,07,05,09,34,19.60
2007,07,05,09,35,19.50
2007,07,05,09,36,19.50
2007,07,05,09,37,19.50
2007,07,05,09,38,19.60
2007,07,05,09,39,19.60
2007,07,05,09,40,19.60
2007,07,05,09,41,19.50
2007,07,05,09,42,19.60
2007,07,05,09,43,19.60
2007,07,05,09,44,19.60
2007,07,05,09,45,19.60
2007,07,05,09,46,19.50
2007,07,05,09,47,19.40
2007,07,05,09,48,19.40
2007,07,05,09,49,19.30
2007,07,05,09,50,19.40
2007,07,05,09,51,19.50
2007,07,05,09,52,19.70
2007,07,05,09,53,19.80
2007,07,05,09,54,19.90
2007,07,05,09,55,20.10
2007,07,05,09,56,20.20
2007,07,05,09,57,20.20
2007,07,05,09,58,20.20
2007,07,05,09,59,20.20
2007,07,05,10,00,20.30
2007,07,05,10,01,20.40
2007,07,05,10,02,20.40
2007,07,05,10,03,20.40
2007,07,05,10,04,20.50
2007,07,05,10,05,20.50
2007,07,05,10,06,20.60
2007,07,05,10,07,20.70
2007,07,05,10,08,20.70
2007,07,05,10,09,20.70
2007,07,05,10,10,20.60
2007,07,05,10,11,20.70
2007,07,05,10,12,20.70
2007,07,05,10,13,20.70
2007,07,05,10,14,20.60
2007,07,05,10,15,20.60
2007,07,05,10,16,20.70
2007,07,05,10,17,20.80
2007,07,05,10,18,20.90
2007,07,05,10,19,20.70
2007,07,05,10,20,20.40
2007,07,05,10,21,20.10
2007,07,05,10,22,19.90
2007,07,05,10,23,19.80
2007,07,05,10,24,19.60
2007,07,05,10,25,19.60
2007,07,05,10,26,19.60
2007,07,05,10,27,19.50
2007,07,05,10,28,19.60
2007,07,05,10,29,19.70
2007,07,05,10,30,19.80
2007,07,05,10,31,19.90
2007,07,05,10,32,20.00
2007,07,05,10,33,20.10
2007,07,05,10,34,20.00
2007,07,05,10,35,19.90
2007,07,05,10,36,19.90
2007,07,05,10,37,19.90
2007,07,05,10,38,19.90
2007,07,05,10,39,19.80
2007,07,05,10,40,19.60
2007,07,05,10,41,19.60
2007,07,05,10,42,19.60
2007,07,05,10,43,19.50
2007,07,05,10,44,19.40
2007,07,05,10,45,19.40
2007,07,05,10,46,19.40
2007,07,05,10,47,19.40
2007,07,05,10,48,19.50
2007,07,05,10,49,19.50
2007,07,05,10,50,19.50
2007,07,05,10,51,19.70
2007,07,05,10,52,19.90
2007,07,05,10,53,20.10
2007,07,05,10,54,20.20
2007,07,05,10,55,20.30
2007,07,05,10,56,20.50
2007,07,05,10,57,20.50
2007,07,05,10,58,20.50
2007,07,05,10,59,20.40
2007,07,05,11,00,20.50
2007,07,05,11,01,20.50
2007,07,05,11,02,20.60
2007,07,05,11,03,20.60
2007,07,05,11,04,20.70
2007,07,05,11,05,20.70
2007,07,05,11,06,20.70
2007,07,05,11,07,20.80
2007,07,05,11,08,21.00
2007,07,05,11,09,21.20
2007,07,05,11,10,21.40
2007,07,05,11,11,21.60
2007,07,05,11,12,21.50
2007,07,05,11,13,21.40
2007,07,05,11,14,21.50
2007,07,05,11,15,21.50
2007,07,05,11,16,21.40
2007,07,05,11,17,21.30
2007,07,05,11,18,21.30
2007,07,05,11,19,21.20
2007,07,05,11,20,21.30
2007,07,05,11,21,21.30
2007,07,05,11,22,21.30
2007,07,05,11,23,21.20
2007,07,05,11,24,21.10
2007,07,05,11,25,21.00
2007,07,05,11,26,20.90
2007,07,05,11,27,20.80
2007,07,05,11,28,20.70
2007,07,05,11,29,20.70
2007,07,05,11,30,20.50
2007,07,05,11,31,20.50
2007,07,05,11,32,20.50
2007,07,05,11,33,20.50
2007,07,05,11,34,20.60
2007,07,05,11,35,20.80
2007,07,05,11,36,20.80
2007,07,05,11,37,20.80
2007,07,05,11,38,20.80
2007,07,05,11,39,20.90
2007,07,05,11,40,21.00
2007,07,05,11,41,21.00
2007,07,05,11,42,21.30
2007,07,05,11,43,21.70
2007,07,05,11,44,22.00
2007,07,05,11,45,22.00
2007,07,05,11,46,22.00
2007,07,05,11,47,22.00
2007,07,05,11,48,22.00
2007,07,05,11,49,21.80
2007,07,05,11,50,21.50
2007,07,05,11,51,21.30
2007,07,05,11,52,21.20
2007,07,05,11,53,21.00
2007,07,05,11,54,20.80
2007,07,05,11,55,20.80
2007,07,05,11,56,20.80
2007,07,05,11,57,20.80
2007,07,05,11,58,20.80
2007,07,05,11,59,20.90
2007,07,05,12,00,21.20
2007,07,05,12,01,21.40
2007,07,05,12,02,21.70
2007,07,05,12,03,21.90
2007,07,05,12,04,22.00
2007,07,05,12,05,22.10
2007,07,05,12,06,22.30
2007,07,05,12,07,22.50
2007,07,05,12,08,22.70
2007,07,05,12,09,22.60
2007,07,05,12,10,22.50
2007,07,05,12,11,22.50
2007,07,05,12,12,22.60
2007,07,05,12,13,22.60
2007,07,05,12,14,22.60
2007,07,05,12,15,22.70
2007,07,05,12,16,22.80
2007,07,05,12,17,22.80
2007,07,05,12,18,23.00
2007,07,05,12,19,23.20
2007,07,05,12,20,23.50
2007,07,05,12,21,23.70
2007,07,05,12,22,23.70
2007,07,05,12,23,23.70
2007,07,05,12,24,23.70
2007,07,05,12,25,23.70
2007,07,05,12,26,23.90
2007,07,05,12,27,24.00
2007,07,05,12,28,24.10
2007,07,05,12,29,24.20
2007,07,05,12,30,24.20
2007,07,05,12,31,24.30
2007,07,05,12,32,24.30
2007,07,05,12,33,24.40
2007,07,05,12,34,24.40
2007,07,05,12,35,24.30
2007,07,05,12,36,24.30
2007,07,05,12,37,24.30
2007,07,05,12,38,24.30
2007,07,05,12,39,24.30
2007,07,05,12,40,24.30
2007,07,05,12,41,24.30
2007,07,05,12,42,24.30
2007,07,05,12,43,24.40
2007,07,05,12,44,24.50
2007,07,05,12,45,24.50
2007,07,05,12,46,24.50
2007,07,05,12,47,24.50
2007,07,05,12,48,24.70
2007,07,05,12,49,24.80
2007,07,05,12,50,24.80
2007,07,05,12,51,24.90
2007,07,05,12,52,25.10
2007,07,05,12,53,25.20
2007,07,05,12,54,25.40
2007,07,05,12,55,25.40
2007,07,05,12,56,25.40
2007,07,05,12,57,25.40
2007,07,05,12,58,25.50
2007,07,05,12,59,25.50
2007,07,05,13,00,25.60
2007,07,05,13,01,25.70
2007,07,05,13,02,25.70
2007,07,05,13,03,25.80
2007,07,05,13,04,25.60
2007,07,05,13,05,25.70
2007,07,05,13,06,25.70
2007,07,05,13,07,25.90
2007,07,05,13,08,25.80
2007,07,05,13,09,25.60
2007,07,05,13,10,25.60
2007,07,05,13,11,25.70
2007,07,05,13,12,25.70
2007,07,05,13,13,25.70
2007,07,05,13,14,25.70
2007,07,05,13,15,25.50
2007,07,05,13,16,25.40
2007,07,05,13,17,25.30
2007,07,05,13,18,25.20
2007,07,05,13,19,25.20
2007,07,05,13,20,25.20
2007,07,05,13,21,25.10
2007,07,05,13,22,24.80
2007,07,05,13,23,24.80
2007,07,05,13,24,24.80
2007,07,05,13,25,24.80
2007,07,05,13,26,24.80
2007,07,05,13,27,24.80
2007,07,05,13,28,24.70
2007,07,05,13,29,24.70
2007,07,05,13,30,24.70
2007,07,05,13,31,24.60
2007,07,05,13,32,24.50
2007,07,05,13,33,24.50
2007,07,05,13,34,24.50
2007,07,05,13,35,24.50
2007,07,05,13,36,24.40
2007,07,05,13,37,24.40
2007,07,05,13,38,24.30
2007,07,05,13,39,24.30
2007,07,05,13,40,24.20
2007,07,05,13,41,24.10
2007,07,05,13,42,24.10
2007,07,05,13,43,24.30
2007,07,05,13,44,24.50
2007,07,05,13,45,24.80
2007,07,05,13,46,24.90
2007,07,05,13,47,24.90
2007,07,05,13,48,24.80
2007,07,05,13,49,24.70
2007,07,05,13,50,24.50
2007,07,05,13,51,24.40
2007,07,05,13,52,24.40
2007,07,05,13,53,24.30
2007,07,05,13,54,24.30
2007,07,05,13,55,24.30
2007,07,05,13,56,24.40
2007,07,05,13,57,24.60
2007,07,05,13,58,24.80
2007,07,05,13,59,25.20
2007,07,05,14,00,25.50
2007,07,05,14,01,25.80
2007,07,05,14,02,25.90
2007,07,05,14,03,25.90
2007,07,05,14,04,25.80
2007,07,05,14,05,25.70
2007,07,05,14,06,25.70
2007,07,05,14,07,25.60
2007,07,05,14,08,25.50
2007,07,05,14,09,25.40
2007,07,05,14,10,25.20
2007,07,05,14,11,25.00
2007,07,05,14,12,24.90
2007,07,05,14,13,24.90
2007,07,05,14,14,24.90
2007,07,05,14,15,24.80
2007,07,05,14,16,24.80
2007,07,05,14,17,24.90
2007,07,05,14,18,25.00
2007,07,05,14,19,25.20
2007,07,05,14,20,25.20
2007,07,05,14,21,25.20
2007,07,05,14,22,25.10
2007,07,05,14,23,25.00
2007,07,05,14,24,24.90
2007,07,05,14,25,24.80
2007,07,05,14,26,24.80
2007,07,05,14,27,24.70
2007,07,05,14,28,24.60
2007,07,05,14,29,24.50
2007,07,05,14,30,24.50
2007,07,05,14,31,24.50
2007,07,05,14,32,24.70
2007,07,05,14,33,24.80
2007,07,05,14,34,24.90
2007,07,05,14,35,25.10
2007,07,05,14,36,25.30
2007,07,05,14,37,25.50
2007,07,05,14,38,25.60
2007,07,05,14,39,25.60
2007,07,05,14,40,25.60
2007,07,05,14,41,25.70
2007,07,05,14,42,25.70
2007,07,05,14,43,25.60
2007,07,05,14,44,25.50
2007,07,05,14,45,25.50
2007,07,05,14,46,25.50
2007,07,05,14,47,25.50
2007,07,05,14,48,25.60
2007,07,05,14,49,25.60
2007,07,05,14,50,25.60
2007,07,05,14,51,25.70
2007,07,05,14,52,25.90
2007,07,05,14,53,26.20
2007,07,05,14,54,26.50
2007,07,05,14,55,26.70
2007,07,05,14,56,26.80
2007,07,05,14,57,26.90
2007,07,05,14,58,26.70
2007,07,05,14,59,26.60
2007,07,05,15,00,26.60
2007,07,05,15,01,26.70
2007,07,05,15,02,26.80
2007,07,05,15,03,26.80
2007,07,05,15,04,26.80
2007,07,05,15,05,26.90
2007,07,05,15,06,27.10
2007,07,05,15,07,27.00
2007,07,05,15,08,26.90
2007,07,05,15,09,26.90
2007,07,05,15,10,26.90
2007,07,05,15,11,26.90
2007,07,05,15,12,26.80
2007,07,05,15,13,26.70
2007,07,05,15,14,26.60
2007,07,05,15,15,26.60
2007,07,05,15,16,26.50
2007,07,05,15,17,26.30
2007,07,05,15,18,26.20
2007,07,05,15,19,26.00
2007,07,05,15,20,26.00
2007,07,05,15,21,26.00
2007,07,05,15,22,25.90
2007,07,05,15,23,26.00
2007,07,05,15,24,26.00
2007,07,05,15,25,26.00
2007,07,05,15,26,25.90
2007,07,05,15,27,25.80
2007,07,05,15,28,25.80
2007,07,05,15,29,25.90
2007,07,05,15,30,25.90
2007,07,05,15,31,25.90
2007,07,05,15,32,26.00
2007,07,05,15,33,26.20
2007,07,05,15,34,26.30
2007,07,05,15,35,26.20
2007,07,05,15,36,26.00
2007,07,05,15,37,25.90
2007,07,05,15,38,25.80
2007,07,05,15,39,25.90
2007,07,05,15,40,26.00
2007,07,05,15,41,26.20
2007,07,05,15,42,26.20
2007,07,05,15,43,26.20
2007,07,05,15,44,26.10
2007,07,05,15,45,25.90
2007,07,05,15,46,25.90
2007,07,05,15,47,26.00
2007,07,05,15,48,26.10
2007,07,05,15,49,26.20
2007,07,05,15,50,26.20
2007,07,05,15,51,26.30
2007,07,05,15,52,26.40
2007,07,05,15,53,26.40
2007,07,05,15,54,26.50
2007,07,05,15,55,26.60
2007,07,05,15,56,26.60
2007,07,05,15,57,26.60
2007,07,05,15,58,26.70
2007,07,05,15,59,26.70
2007,07,05,16,00,26.80
2007,07,05,16,01,26.80
2007,07,05,16,02,26.80
2007,07,05,16,03,26.70
2007,07,05,16,04,26.60
2007,07,05,16,05,26.60
2007,07,05,16,06,26.60
2007,07,05,16,07,26.60
2007,07,05,16,08,26.70
2007,07,05,16,09,26.80
2007,07,05,16,10,27.00
2007,07,05,16,11,27.20
2007,07,05,16,12,27.40
2007,07,05,16,13,27.60
2007,07,05,16,14,27.60
2007,07,05,16,15,27.60
2007,07,05,16,16,27.50
2007,07,05,16,17,27.40
2007,07,05,16,18,27.40
2007,07,05,16,19,27.40
2007,07,05,16,20,27.40
2007,07,05,16,21,27.40
2007,07,05,16,22,27.60
2007,07,05,16,23,27.70
2007,07,05,16,24,27.70
2007,07,05,16,25,27.60
2007,07,05,16,26,27.60
2007,07,05,16,27,27.70
2007,07,05,16,28,27.70
2007,07,05,16,29,27.70
2007,07,05,16,30,27.70
2007,07,05,16,31,27.70
2007,07,05,16,32,27.70
2007,07,05,16,33,27.70
2007,07,05,16,34,27.70
2007,07,05,16,35,27.60
2007,07,05,16,36,27.60
2007,07,05,16,37,27.60
2007,07,05,16,38,27.60
2007,07,05,16,39,27.60
2007,07,05,16,40,27.70
2007,07,05,16,41,27.60
2007,07,05,16,42,27.60
2007,07,05,16,43,27.70
2007,07,05,16,44,27.70
2007,07,05,16,45,27.80
2007,07,05,16,46,27.90
2007,07,05,16,47,27.90
2007,07,05,16,48,27.90
2007,07,05,16,49,27.90
2007,07,05,16,50,28.00
2007,07,05,16,51,28.10
2007,07,05,16,52,28.10
2007,07,05,16,53,28.20
2007,07,05,16,54,28.30
2007,07,05,16,55,28.30
2007,07,05,16,56,28.50
2007,07,05,16,57,28.50
2007,07,05,16,58,28.40
2007,07,05,16,59,28.50
2007,07,05,17,00,28.70
2007,07,05,17,01,28.80
2007,07,05,17,02,28.90
2007,07,05,17,03,28.90
2007,07,05,17,04,29.00
2007,07,05,17,05,29.20
2007,07,05,17,06,29.20
2007,07,05,17,07,29.20
2007,07,05,17,08,29.20
2007,07,05,17,09,29.00
2007,07,05,17,10,28.80
2007,07,05,17,11,28.50
2007,07,05,17,12,28.20
2007,07,05,17,13,28.20
2007,07,05,17,14,28.30
2007,07,05,17,15,28.40
2007,07,05,17,16,28.60
2007,07,05,17,17,28.80
2007,07,05,17,18,29.00
2007,07,05,17,19,29.10